[[{"header":{"parameterUnit":"m.s-1","parameterCategory":1,"la1":30.2991,"la2":30.254,"lo1":-89.0895,"lo2":-89.0444,"dy":0.0017,"dx":0.0017,"nx":28,"ny":28,"refTime":"2025-03-26T03:00:00:Z","depth":0,"parameterNumber":2,"parameterNumberName":"U-component_of_WINDS"},"data":[0,0,0,0,0,0,0,0,0,0,0,0,0,0,0,0,0,0,0,0,0,0,0,0,0,0,0,0,0,0,0,0,0,0,0,0,0,0,0,0,0,0,0,0,0,0,0,0,0,0,0,0,0,0,0,0,0,0,-3.4486,-3.4487,0,-3.4567,-3.4567,-3.4568,-3.4544,-3.4543,-3.4541,-3.454,-3.4624,-3.4628,-3.4632,0,0,0,0,0,0,0,0,0,0,0,0,0,-3.4315,-3.4318,-3.4486,-3.4487,-3.4488,-3.4566,-3.4568,-3.4569,-3.4545,-3.4543,-3.4541,-3.4539,-3.4623,-3.4627,-3.4632,0,0,0,0,0,0,0,0,0,0,0,0,0,-3.4392,-3.4319,-3.4486,-3.4486,-3.4487,-3.4566,-3.4568,-3.4569,-3.4545,-3.4543,-3.454,-3.4538,-3.4621,-3.4627,-3.4633,-3.4718,0,0,-3.465,-3.4653,0,0,0,0,0,0,0,0,-3.4388,-3.4398,-3.4485,-3.4486,-3.4487,-3.4543,-3.4538,-3.4619,-3.4546,-3.4523,-3.4539,-3.4537,-3.4599,-3.4607,-3.4627,-3.4722,-3.4726,-3.4651,-3.4654,-3.4657,-3.4658,0,0,0,0,0,0,0,-3.4382,-3.4395,-3.4518,-3.4486,-3.4487,-3.4482,-3.4491,-3.4553,-3.4574,-3.4525,-3.4523,-3.4533,-3.4599,-3.4622,-3.4629,-3.4727,-3.4651,-3.4656,-3.4659,-3.4661,-3.4898,-3.4901,0,0,0,0,0,0,-3.4376,-3.439,-3.4516,-3.452,-3.443,-3.4488,-3.4497,-3.4528,-3.4574,-3.4578,-3.4535,-3.4532,-3.4613,-3.4623,-3.4632,-3.4737,-3.4657,-3.4662,-3.4665,-3.4895,-3.4899,-3.4902,0,0,0,0,0,0,-3.4372,-3.4387,-3.4512,-3.4455,-3.4471,-3.4493,-3.4528,-3.453,-3.4553,-3.4581,-3.4585,-3.4554,-3.4612,-3.4624,-3.4697,-3.4739,-3.4664,-3.467,-3.4892,-3.4896,-3.49,-3.4946,0,0,0,0,0,0,-3.4367,-3.4386,-3.4418,-3.4456,-3.4474,-3.4576,-3.4531,-3.4534,-3.4562,-3.4559,-3.46,-3.4605,-3.4611,-3.4689,-3.4703,-3.4746,-3.4674,-3.4888,-3.4894,-3.4899,-3.4941,-3.4952,-3.4961,0,0,0,0,0,-3.4361,-3.4428,-3.442,-3.4435,-3.4514,-3.4578,-3.4588,-3.4593,-3.4566,-3.4599,-3.4617,-3.4603,-3.4732,-3.4697,-3.4712,-3.4758,-3.4886,-3.4892,-3.4899,-3.4937,-3.495,-3.496,0,0,0,0,0,0,-3.4396,-3.4433,-3.4424,-3.4505,-3.4539,-3.4574,-3.4616,-3.4606,-3.4649,-3.4644,-3.4649,-3.4658,-3.4734,-3.4753,-3.4712,-3.4844,-3.4805,-3.4815,-3.4829,-3.4841,-3.4851,-3.4845,-3.4679,0,0,0,0,0,-3.4412,-3.446,-3.449,-3.4559,-3.4576,-3.4593,-3.4621,-3.4622,-3.4657,-3.4671,-3.4695,-3.473,-3.4779,-3.4811,-3.4857,-3.4943,-3.4953,-3.4982,-3.4992,-3.5,-3.5009,-3.5058,-3.5072,-3.4923,-3.4923,-3.4923,0,0,-3.4448,-3.4474,-3.4504,-3.4567,-3.4592,-3.4643,-3.4605,-3.466,-3.4698,-3.468,-3.4751,-3.4769,-3.4809,-3.489,-3.4926,-3.4908,-3.5052,-3.5008,-3.5014,-3.5019,-3.5066,-3.508,-3.5092,-3.4927,-3.4927,-3.4926,0,0,-3.4539,-3.4563,-3.4623,-3.465,-3.4689,-3.47,-3.4715,-3.4752,-3.4763,-3.4834,-3.4822,-3.4867,-3.495,-3.498,-3.5006,-3.5108,-3.5097,-3.5123,-3.5174,-3.5222,-3.5234,-3.5244,-3.5283,-3.5296,-3.5131,-3.5132,-3.5132,0,-3.4578,-3.4653,-3.4656,-3.4712,-3.474,-3.4725,-3.4787,-3.4813,-3.4866,-3.4887,-3.4865,-3.4969,-3.4995,-3.5083,-3.5108,-3.5129,-3.5147,-3.5119,-3.5232,-3.5242,-3.5252,-3.5289,-3.5303,-3.5134,-3.5134,-3.5134,-3.5134,0,-3.4701,-3.4753,-3.4797,-3.4848,-3.4881,-3.494,-3.4953,-3.4986,-3.4984,-3.4997,-3.5071,-3.5101,-3.5153,-3.5174,-3.5173,-3.5263,-3.525,-3.523,-3.5192,-3.5269,-3.5304,-3.5318,-3.5139,-3.5138,-3.5137,-3.5136,0,0,-3.4817,-3.4868,-3.4885,-3.4908,-3.4951,-3.4992,-3.505,-3.5101,-3.513,-3.5167,-3.5218,-3.5288,-3.527,-3.53,-3.5301,-3.5343,-3.5424,-3.5318,-3.5319,-3.5338,-3.5528,-3.5544,-3.556,-3.5417,-3.5419,-3.5421,-3.5525,0,-3.4913,-3.5015,-3.5019,-3.5113,-3.5162,-3.5149,-3.52,-3.5232,-3.5246,-3.5291,-3.5307,-3.5358,-3.5329,-3.5346,-3.5387,-3.5406,-3.5463,-3.5398,-3.5466,-3.5468,-3.5458,-3.5578,-3.5595,-3.5692,-3.5538,-3.5541,-3.5542,0,-3.5039,-3.508,-3.5178,-3.5215,-3.5236,-3.5282,-3.5329,-3.5371,-3.5408,-3.5415,-3.5448,-3.5444,-3.5505,-3.5463,-3.5549,-3.5505,-3.5532,-3.5546,-3.555,-3.5558,-3.5511,-3.5591,-3.5722,-3.5738,-3.5563,-3.5562,-3.556,0,-3.5116,-3.5195,-3.5265,-3.5285,-3.5329,-3.5362,-3.5382,-3.5416,-3.5447,-3.5488,-3.5508,-3.5557,-3.5584,-3.5622,-3.5631,-3.56,-3.5718,-3.5676,-3.5727,-3.5727,-3.5754,-3.5753,-3.5894,-3.5769,-3.5768,-3.5768,-3.5768,0,-3.5224,-3.5286,-3.5301,-3.5344,-3.5413,-3.5417,-3.5485,-3.5503,-3.5533,-3.558,-3.5571,-3.5616,-3.5625,-3.5672,-3.5679,-3.575,-3.5762,-3.5771,-3.5773,-3.5773,-3.5772,-3.5793,-3.5787,-3.5772,-3.5771,-3.577,-3.577,0,-3.5323,-3.5335,-3.5411,-3.5446,-3.5456,-3.5505,-3.5536,-3.5578,-3.559,-3.5651,-3.5665,-3.5685,-3.574,-3.5753,-3.5818,-3.5824,-3.5908,-3.5902,-3.5896,-3.5896,-3.5947,-3.5943,-3.6108,-3.6131,-3.5989,-3.599,-3.5991,0,-3.5393,-3.544,-3.548,-3.551,-3.5532,-3.5581,-3.5612,-3.5618,-3.5651,-3.5696,-3.5733,-3.5787,-3.583,-3.5919,-3.594,-3.5991,-3.5987,-3.6042,-3.5995,-3.5994,-3.5991,-3.5989,-3.5994,-3.6051,-3.6053,-3.6054,-3.6055,0,-3.5515,-3.5519,-3.5563,-3.5611,-3.5648,-3.5686,-3.5722,-3.5748,-3.5759,-3.5796,-3.5852,-3.5886,-3.5952,-3.6006,-3.6057,-3.6078,-3.607,-3.6069,-3.6084,-3.6086,-3.6081,-3.6087,-3.5922,-3.6066,-3.6065,-3.6064,-3.6063,-3.6063,-3.5603,-3.5644,-3.5679,-3.573,-3.5757,-3.5791,-3.5833,-3.5851,-3.5897,-3.5951,-3.5952,-3.6013,-3.6049,-3.6116,-3.6141,-3.619,-3.6173,-3.6194,-3.62,-3.6206,-3.6211,-3.6071,-3.6199,-3.6198,-3.6198,-3.6198,-3.6198,0,-3.5727,-3.5748,-3.5794,-3.5845,-3.5885,-3.5871,-3.5911,-3.5946,-3.6,-3.6034,-3.6076,-3.6141,-3.6194,-3.6219,-3.6271,-3.6306,-3.6303,-3.6319,-3.6318,-3.6324,-3.6222,-3.6205,-3.6321,-3.6321,-3.6321,-3.6321,-3.6321,-3.6321,-3.5796,-3.5866,-3.5874,-3.5958,-3.598,-3.6039,-3.6063,-3.6095,-3.6122,-3.6195,-3.6238,-3.6254,-3.6285,-3.6339,-3.6387,-3.6394,-3.6414,-3.6433,-3.6438,-3.6343,-3.633,-3.6319,-3.6303,-3.6437,-3.6437,-3.6536,-3.6537,-3.6537]},{"header":{"parameterUnit":"m.s-1","parameterCategory":1,"la1":30.2991,"la2":30.254,"lo1":-89.0895,"lo2":-89.0444,"dy":0.0017,"dx":0.0017,"nx":28,"ny":28,"refTime":"2025-03-26T03:00:00:Z","depth":0,"parameterNumber":3,"parameterNumberName":"V-component_of_WINDS"},"data":[0,0,0,0,0,0,0,0,0,0,0,0,0,0,0,0,0,0,0,0,0,0,0,0,0,0,0,0,0,0,0,0,0,0,0,0,0,0,0,0,0,0,0,0,0,0,0,0,0,0,0,0,0,0,0,0,0,0,0.6262,0.6263,0,0.633,0.6331,0.6332,0.6404,0.6405,0.6406,0.6407,0.6476,0.6477,0.6477,0,0,0,0,0,0,0,0,0,0,0,0,0,0.6193,0.6194,0.6262,0.6263,0.6263,0.633,0.6331,0.6332,0.6404,0.6405,0.6407,0.6408,0.6475,0.6476,0.6478,0,0,0,0,0,0,0,0,0,0,0,0,0,0.6238,0.6194,0.6262,0.6308,0.6312,0.633,0.6331,0.6332,0.6404,0.6405,0.6407,0.6408,0.6475,0.6476,0.6478,0.6455,0,0,0.6482,0.6482,0,0,0,0,0,0,0,0,0.6236,0.6241,0.63,0.6304,0.631,0.636,0.6332,0.6373,0.6403,0.6369,0.6407,0.6409,0.6436,0.6441,0.645,0.6458,0.6461,0.6482,0.6483,0.6483,0.6483,0,0,0,0,0,0,0,0.6232,0.6238,0.6289,0.6301,0.6307,0.6325,0.6333,0.634,0.6393,0.6372,0.6378,0.6385,0.6439,0.6449,0.6452,0.6462,0.6482,0.6483,0.6484,0.6484,0.6457,0.6456,0,0,0,0,0,0,0.6222,0.6235,0.6287,0.6291,0.6276,0.6325,0.6334,0.6342,0.6393,0.6402,0.6383,0.6388,0.6446,0.6451,0.6455,0.6433,0.6483,0.6484,0.6485,0.6458,0.6457,0.6455,0,0,0,0,0,0,0.6221,0.6226,0.6284,0.6264,0.6273,0.6324,0.6333,0.6343,0.6353,0.6402,0.6411,0.6384,0.6447,0.6453,0.6455,0.6436,0.6485,0.6486,0.646,0.6458,0.6456,0.6388,0,0,0,0,0,0,0.6218,0.6225,0.6217,0.6264,0.6274,0.6283,0.6332,0.6343,0.6355,0.6362,0.6404,0.6413,0.6449,0.6453,0.6456,0.6439,0.6487,0.6462,0.6459,0.6457,0.6392,0.6384,0.6377,0,0,0,0,0,0.6216,0.6195,0.6216,0.6222,0.6265,0.6281,0.6287,0.6329,0.6353,0.6346,0.6377,0.6412,0.6438,0.6452,0.6457,0.644,0.6464,0.646,0.6457,0.6396,0.6386,0.6377,0,0,0,0,0,0,0.6144,0.6202,0.6226,0.622,0.6245,0.6294,0.6285,0.6317,0.6336,0.6341,0.6392,0.6401,0.6397,0.6419,0.6434,0.6421,0.6456,0.6453,0.6408,0.6398,0.6391,0.6386,0.6488,0,0,0,0,0,0.6127,0.6136,0.6186,0.6176,0.6187,0.6234,0.6243,0.6273,0.6301,0.6312,0.6344,0.637,0.6384,0.6392,0.6408,0.6396,0.6407,0.6386,0.6378,0.6372,0.6369,0.6366,0.6358,0.6444,0.6444,0.6444,0,0,0.6093,0.6126,0.6128,0.6162,0.6185,0.6194,0.6242,0.6249,0.6255,0.6313,0.6317,0.6341,0.6374,0.6369,0.6368,0.6387,0.6348,0.6367,0.6362,0.6363,0.6362,0.6353,0.6346,0.6442,0.6442,0.6442,0,0,0.6035,0.606,0.6055,0.6078,0.6113,0.6145,0.6143,0.6187,0.6206,0.6211,0.6255,0.6263,0.6286,0.6308,0.6322,0.6273,0.6306,0.6277,0.6236,0.6233,0.6226,0.622,0.6204,0.6198,0.6274,0.6274,0.6274,0,0.5988,0.6003,0.6048,0.6053,0.6067,0.612,0.6116,0.6135,0.6173,0.6181,0.6201,0.6233,0.6258,0.626,0.6248,0.6257,0.6258,0.6273,0.6223,0.6218,0.6213,0.6199,0.6192,0.627,0.6271,0.6271,0.6271,0,0.5944,0.5953,0.5945,0.5982,0.5995,0.5994,0.604,0.6047,0.6077,0.6106,0.6111,0.6143,0.6167,0.617,0.6198,0.6176,0.6186,0.6214,0.6249,0.6201,0.6188,0.6182,0.6265,0.6266,0.6267,0.6268,0,0,0.5843,0.5906,0.5902,0.592,0.5963,0.5971,0.5973,0.5997,0.6003,0.6028,0.6031,0.605,0.6077,0.6092,0.6123,0.612,0.6081,0.6148,0.615,0.6136,0.606,0.604,0.6033,0.6103,0.6102,0.6101,0.6058,0,0.5794,0.5802,0.5844,0.584,0.5849,0.59,0.5903,0.5929,0.5957,0.5969,0.5999,0.6012,0.6045,0.6056,0.6054,0.6086,0.6067,0.609,0.6107,0.6107,0.6099,0.6026,0.6004,0.5962,0.6053,0.6052,0.6052,0,0.5738,0.576,0.5757,0.5801,0.5807,0.5808,0.5835,0.5845,0.5877,0.5897,0.5915,0.595,0.5956,0.5988,0.5997,0.6012,0.6021,0.6038,0.6038,0.6042,0.6077,0.6029,0.595,0.5944,0.6044,0.6045,0.6045,0,0.5666,0.5695,0.5698,0.5711,0.5762,0.5762,0.5783,0.5816,0.5829,0.5851,0.586,0.5882,0.5895,0.5911,0.5952,0.5972,0.5957,0.5992,0.5974,0.5973,0.5969,0.5969,0.5892,0.5973,0.5973,0.5973,0.5974,0,0.5607,0.5604,0.5666,0.5668,0.5666,0.5714,0.571,0.5736,0.5765,0.5773,0.5818,0.5824,0.5877,0.5889,0.592,0.5924,0.5928,0.5945,0.5954,0.5942,0.594,0.595,0.5954,0.5972,0.5972,0.5973,0.5973,0,0.5527,0.5569,0.5575,0.5624,0.5636,0.5632,0.5674,0.5677,0.5708,0.5717,0.5722,0.5769,0.5786,0.5828,0.5855,0.5877,0.5872,0.5887,0.5862,0.5867,0.5848,0.5849,0.5774,0.5767,0.5852,0.5851,0.585,0,0.5488,0.5487,0.5535,0.5544,0.5564,0.5577,0.559,0.5637,0.5649,0.5685,0.5685,0.5705,0.5724,0.5749,0.5786,0.5807,0.5824,0.5796,0.5828,0.5816,0.5825,0.5825,0.5826,0.579,0.5788,0.5788,0.5787,0,0.5414,0.5435,0.5453,0.5477,0.5492,0.5514,0.5538,0.5542,0.5595,0.5606,0.5624,0.5639,0.5668,0.5688,0.5716,0.5738,0.5771,0.5777,0.5774,0.5762,0.5748,0.5757,0.5844,0.5778,0.5779,0.578,0.578,0.5781,0.5354,0.5356,0.5391,0.541,0.5433,0.5455,0.5461,0.5492,0.5509,0.5537,0.5563,0.5579,0.5611,0.5652,0.5671,0.5684,0.5701,0.5697,0.5696,0.5695,0.569,0.5745,0.5689,0.5689,0.569,0.569,0.569,0,0.5284,0.5309,0.5326,0.5359,0.5373,0.5404,0.5432,0.5443,0.5456,0.5484,0.5502,0.5523,0.5543,0.5582,0.5605,0.5609,0.5625,0.5613,0.5614,0.5619,0.5672,0.5673,0.56,0.56,0.56,0.56,0.56,0.56,0.5249,0.5255,0.528,0.5297,0.5323,0.5339,0.5353,0.5373,0.5396,0.5418,0.5435,0.5461,0.5493,0.5519,0.5539,0.555,0.5557,0.5541,0.5557,0.5606,0.5615,0.5623,0.5624,0.5542,0.5542,0.5502,0.5502,0.5502]}]]